Погода в Сестриере

Италия     44°57′28″N   6°52′34″E
В апреле 2022 года жителям России запретили посещать сайт meteo.paraplan.net по решению Генеральной прокуратуры. Аудитория сайта уменьшилась в 10 раз. Владельцы сайта не видят смысла в поддержке погодного сервера в таких условиях. Сайт будет закрыт в октябре.
темп.,
°C
ветер,
м/с
пор.,
м/с
влажн.,
%
обл.,
%
осадки,
мм/ч
давл.,
гПа
погр.,
м
4 октября, вт
вт423:00+6з227411 0.0 102320
02:00+6з227694 0.0 102318
05:00+5з2276100 0.0 102224
08:00+5зюз227330 0.0 102327
11:00+12в11495 0.0 1022550
14:00+15в23425 0.0 10211113
17:00+13в226419 0.0 1021604
20:00+7юз119410 0.0 102410
5 октября, ср
ср523:00+7зюз22770 0.0 102513
02:00+5зюз11763 0.0 102612
05:00+5зюз11777 0.0 102611
08:00+5зюз21754 0.0 102715
11:00+12в11522 0.0 1025509
14:00+15в225512 0.0 1024815
17:00+12в227940 0.0 1024363
20:00+8вюв009661 0.0 102726
6 октября, чт
чт623:00+7юз21912 0.0 102817
02:00+6зюз22900 0.0 102934
05:00+5з33910 0.0 102843
08:00+5з33910 0.0 102945
11:00+13св01534 0.0 1027579
14:00+15в32555 0.0 10261137
17:00+13в327370 0.1 1027774
20:00+9в129687 0.1 1030133
7 октября, пт
пт723:00+9всв1296100 0.1 1030143
02:00+8всв129897 0.4 1030145
05:00+8в119485 0.2 1028193
08:00+8всв119184 0.4 1027134
11:00+10в118262 0.1 1027494
14:00+13в226463 0.1 10241102
17:00+11в228084 0.1 1023527
20:00+8в119376 0.2 1025114
8 октября, сб
сб823:00+7зюз119348 0.0 102513
02:00+7зюз228939 0.0 102439
05:00+6зюз339399 0.0 102445
08:00+5з22938 0.0 102439
11:00+12ссз016048 0.0 1022716
14:00+15в224936 0.0 10201511
17:00+11в3278100 0.9 1021431
20:00+8вюв119685 1.9 102323